| time (UTC) | temp C | wind direction | speed KPH | gust KPH | rain 1hr cm | rain 24hr cm | rain mn cm | humidity % | barometer mb |
| 20260904004503 | 18 | 180 | 17.7 | 17.7 | 0.00 | 4.98 | 0.00 | 88 | 1011.5 |
| 20260904003603 | 18 | 180 | 17.7 | 17.7 | 19.68 | 4.98 | 0.00 | 88 | 1011.5 |
| 20260904002703 | 18 | 180 | 17.7 | 17.7 | 19.68 | 4.98 | 0.00 | 88 | 1011.5 |
| 20260904001803 | 18 | 180 | 17.7 | 17.7 | 19.68 | 4.98 | 0.00 | 88 | 1011.5 |
| 20260904000903 | 18 | 180 | 17.7 | 17.7 | 19.68 | 4.98 | 0.00 | 88 | 1011.5 |
| 20260904000003 | 18 | 180 | 17.7 | 17.7 | 19.68 | 4.98 | 0.00 | 88 | 1011.5 |
| 20260903235618 | 18 | 180 | 17.7 | 17.7 | 19.68 | 4.98 | 0.00 | 88 | 1011.5 |
| 20260903234503 | 18 | 180 | 11.3 | 17.7 | 19.68 | 4.98 | 0.00 | 88 | 1011.5 |
| 20260903233603 | 18 | 180 | 12.9 | 19.3 | 0.00 | 3.00 | 0.00 | 88 | 1011.5 |
| 20260903232703 | 18 | 180 | 17.7 | 17.7 | 0.00 | 3.00 | 0.00 | 88 | 1011.5 |
| 20260903231803 | 18 | 180 | 17.7 | 17.7 | 0.00 | 3.00 | 0.00 | 88 | 1011.5 |
| 20260903230903 | 18 | 180 | 17.7 | 17.7 | 0.00 | 3.00 | 0.00 | 88 | 1011.5 |
| 20260903230003 | 18 | 180 | 17.7 | 17.7 | 0.00 | 3.00 | 0.00 | 88 | 1011.5 |
| 20260903225403 | 18 | 180 | 17.7 | 17.7 | 0.00 | 3.00 | 0.00 | 88 | 1011.5 |
| 20260903224716 | 18 | 180 | 17.7 | 17.7 | 0.00 | 3.00 | 0.00 | 88 | 1011.5 |
| 20260903223818 | 18 | 180 | 17.7 | 17.7 | 0.00 | 3.00 | 0.00 | 88 | 1011.5 |
| 20260903222703 | 18 | 180 | 17.7 | 17.7 | 0.00 | 3.00 | 0.00 | 88 | 1011.5 |
| 20260903221803 | 18 | 180 | 17.7 | 17.7 | 0.00 | 3.00 | 0.00 | 88 | 1011.5 |
| 20260903221118 | 18 | 180 | 17.7 | 17.7 | 0.00 | 3.00 | 0.00 | 88 | 1011.5 |
| 20260903220003 | 18 | 180 | 17.7 | 17.7 | 0.00 | 3.00 | 0.00 | 88 | 1011.5 |
| 20260903215403 | 18 | 179 | 17.7 | 17.7 | 0.00 | 3.00 | 0.00 | 88 | 1011.5 |
| 20260903214503 | 18 | 180 | 17.7 | 17.7 | 0.00 | 3.00 | 0.00 | 88 | 1011.5 |
| 20260903213603 | 18 | 180 | 17.7 | 17.7 | 0.00 | 3.00 | 0.00 | 88 | 1011.5 |
| 20260903212703 | 18 | 181 | 17.7 | 17.7 | 19.68 | 3.00 | 0.00 | 88 | 1011.5 |
| 20260903211803 | 18 | 183 | 12.9 | 17.7 | 19.68 | 3.00 | 0.00 | 88 | 1011.5 |
| 20260903210903 | 19 | 180 | 12.9 | 12.9 | 19.68 | 3.00 | 0.00 | 83 | 1012.1 |
| 20260903210003 | 19 | 180 | 12.9 | 12.9 | 22.30 | 3.00 | 0.00 | 83 | 1012.1 |
| 20260903205616 | 19 | 180 | 12.9 | 12.9 | 24.89 | 3.00 | 0.00 | 83 | 1012.1 |
| 20260903204503 | 19 | 180 | 12.9 | 29.0 | 24.89 | 3.00 | 0.00 | 83 | 1012.1 |
| 20260903203603 | 19 | 182 | 11.3 | 86.9 | 24.89 | 3.00 | 0.00 | 83 | 1012.1 |
| 20260903202703 | 32 | 233 | 9.7 | 14.5 | 5.23 | 10.44 | 0.00 | 79 | 1012.2 |
| 20260903201803 | 19 | 290 | 9.7 | 12.9 | 5.23 | 10.44 | 0.00 | 83 | 1012.5 |
| 20260903201117 | 19 | 194 | 8.0 | 20.9 | 5.23 | 10.44 | 0.00 | 83 | 1012.2 |
| 20260903200003 | 22 | 360 | 14.5 | 20.9 | 2.62 | 7.82 | 0.00 | 57 | 1014.0 |
| 20260903195403 | 19 | 177 | 6.4 | 6.4 | 0.00 | 5.23 | 0.00 | 83 | 1012.2 |
| 20260903194717 | 20 | 180 | 6.4 | 6.4 | 0.00 | 5.23 | 0.00 | 82 | 1012.4 |
| 20260903193603 | 20 | 315 | 6.4 | 6.4 | 5.23 | 5.23 | 0.00 | 81 | 1012.5 |
| 20260903192703 | 20 | 137 | 8.0 | 12.9 | 5.23 | 5.23 | 0.00 | 81 | 1012.4 |
| 20260903191803 | 20 | 171 | 8.0 | 12.9 | 5.23 | 5.23 | 0.00 | 79 | 1012.2 |
| 20260903190903 | 20 | 353 | 9.7 | 16.1 | 5.23 | 5.23 | 0.00 | 73 | 1012.7 |
| 20260903190003 | 21 | 318 | 11.3 | 16.1 | 5.23 | 5.23 | 0.00 | 73 | 1012.6 |
| 20260903185618 | 20 | 311 | 11.3 | 16.1 | 5.23 | 5.23 | 0.00 | 75 | 1012.5 |
| 20260903184503 | 20 | 144 | 9.7 | 12.9 | 5.23 | 5.23 | 0.00 | 81 | 1012.9 |
| 20260903183816 | 20 | 164 | 9.7 | 12.9 | 0.00 | 0.00 | 0.00 | 82 | 1012.7 |
| 20260903182703 | 20 | 212 | 9.7 | 14.5 | 0.00 | 0.00 | 0.00 | 82 | 1012.5 |
| 20260903181803 | 21 | 199 | 9.7 | 12.9 | 0.00 | 0.00 | 0.00 | 81 | 1012.9 |
| 20260903180903 | 21 | 186 | 11.3 | 14.5 | 0.00 | 0.00 | 0.00 | 80 | 1012.6 |
| 20260903180003 | 21 | 200 | 11.3 | 12.9 | 0.00 | 0.00 | 0.00 | 78 | 1012.2 |
| 20260903175403 | 21 | 219 | 12.9 | 16.1 | 0.00 | 0.00 | 0.00 | 77 | 1012.3 |
| 20260903174503 | 22 | 181 | 11.3 | 17.7 | 0.00 | 0.00 | 0.00 | 77 | 1012.4 |
| 20260903173818 | 22 | 196 | 11.3 | 17.7 | 0.00 | 0.00 | 0.00 | 77 | 1012.7 |
| 20260903172703 | 22 | 201 | 11.3 | 14.5 | 0.00 | 0.00 | 0.00 | 75 | 1012.6 |
| 20260903171803 | 22 | 230 | 11.3 | 17.7 | 0.00 | 0.00 | 0.00 | 73 | 1012.2 |
| 20260903170903 | 22 | 182 | 9.7 | 17.7 | 0.00 | 0.00 | 0.00 | 73 | 1012.5 |
| 20260903170003 | 22 | 178 | 11.3 | 19.3 | 0.00 | 0.00 | 0.00 | 72 | 1012.5 |
| 20260903165403 | 22 | 191 | 9.7 | 12.9 | 0.00 | 0.00 | 0.00 | 73 | 1012.5 |
| 20260903164503 | 22 | 173 | 9.7 | 17.7 | 0.00 | 0.00 | 0.00 | 72 | 1012.6 |
| 20260903163603 | 24 | 180 | 9.7 | 9.7 | 0.00 | 0.00 | 0.00 | 66 | 1013.1 |
| 20260903162703 | 24 | 180 | 9.7 | 9.7 | 0.00 | 0.00 | 0.00 | 66 | 1013.1 |
| 20260903161803 | 24 | 180 | 9.7 | 9.7 | 0.00 | 0.00 | 0.00 | 66 | 1013.1 |
| 20260903160903 | 24 | 192 | 9.7 | 11.3 | 0.00 | 0.00 | 0.00 | 66 | 1013.1 |
| 20260903160003 | 25 | 275 | 9.7 | 12.9 | 0.00 | 0.00 | 0.00 | 66 | 1013.0 |
| 20260903155617 | 25 | 312 | 11.3 | 12.9 | 0.00 | 0.00 | 0.00 | 66 | 1012.8 |
| 20260903154503 | 26 | 315 | 12.9 | 12.9 | 0.00 | 0.00 | 0.00 | 55 | 1013.1 |
| 20260903153603 | 26 | 275 | 14.5 | 16.1 | 0.00 | 0.00 | 0.00 | 55 | 1013.1 |
| 20260903152703 | 26 | 283 | 12.9 | 16.1 | 0.00 | 0.00 | 0.00 | 55 | 1013.1 |
| 20260903152018 | 26 | 173 | 9.7 | 14.5 | 0.00 | 0.00 | 0.00 | 55 | 1013.0 |
| 20260903151117 | 25 | 185 | 8.0 | 9.7 | 0.00 | 0.00 | 0.00 | 59 | 1013.4 |
| 20260903150003 | 25 | 264 | 11.3 | 17.7 | 0.00 | 0.00 | 0.00 | 56 | 1013.4 |
| 20260903145403 | 25 | 237 | 8.0 | 12.9 | 0.00 | 0.00 | 0.00 | 60 | 1013.2 |
| 20260903144717 | 25 | 214 | 11.3 | 12.9 | 0.00 | 0.00 | 0.00 | 59 | 1013.4 |
| 20260903143603 | 25 | 246 | 14.5 | 20.9 | 0.00 | 0.00 | 0.00 | 58 | 1013.3 |
| 20260903142703 | 25 | 274 | 12.9 | 20.9 | 0.00 | 0.00 | 0.00 | 57 | 1013.6 |
| 20260903141803 | 25 | 307 | 11.3 | 17.7 | 0.00 | 0.00 | 0.00 | 60 | 1013.6 |
| 20260903140903 | 25 | 303 | 12.9 | 17.7 | 0.00 | 0.00 | 0.00 | 60 | 1013.6 |
| 20260903140003 | 25 | 314 | 14.5 | 24.1 | 0.00 | 0.00 | 0.00 | 59 | 1013.6 |
| 20260903135403 | 25 | 337 | 12.9 | 19.3 | 0.00 | 0.00 | 0.00 | 60 | 1013.6 |
| 20260903134503 | 24 | 322 | 12.9 | 16.1 | 0.00 | 0.00 | 0.00 | 61 | 1013.6 |
| 20260903133603 | 25 | 254 | 14.5 | 20.9 | 0.00 | 0.00 | 0.00 | 60 | 1013.7 |
| 20260903132918 | 25 | 262 | 14.5 | 24.1 | 0.00 | 0.00 | 0.00 | 59 | 1013.6 |
| 20260903131803 | 25 | 256 | 12.9 | 17.7 | 0.00 | 0.00 | 0.00 | 60 | 1013.8 |
| 20260903130903 | 25 | 271 | 12.9 | 16.1 | 0.00 | 0.00 | 0.00 | 61 | 1013.5 |
| 20260903130003 | 24 | 269 | 9.7 | 16.1 | 0.00 | 0.00 | 0.00 | 63 | 1013.8 |
| 20260903125403 | 24 | 269 | 9.7 | 16.1 | 0.00 | 0.00 | 0.00 | 66 | 1013.5 |
| 20260903124503 | 24 | 70 | 8.0 | 12.9 | 0.00 | 0.00 | 0.00 | 69 | 1013.5 |
| 20260903123603 | 24 | 189 | 8.0 | 12.9 | 0.00 | 0.00 | 0.00 | 71 | 1013.5 |
| 20260903122703 | 23 | 188 | 4.8 | 8.0 | 0.00 | 0.00 | 0.00 | 75 | 1013.9 |
| 20260903121803 | 22 | 181 | 6.4 | 11.3 | 0.00 | 0.00 | 0.00 | 74 | 1013.8 |
| 20260903120903 | 22 | 206 | 6.4 | 11.3 | 0.00 | 0.00 | 0.00 | 73 | 1013.9 |
| 20260903120003 | 23 | 192 | 8.0 | 12.9 | 0.00 | 0.00 | 0.00 | 73 | 1013.7 |
| 20260903115617 | 23 | 248 | 9.7 | 12.9 | 0.00 | 0.00 | 0.00 | 73 | 1013.7 |
| 20260903114503 | 22 | 263 | 4.8 | 9.7 | 0.00 | 0.03 | 0.00 | 73 | 1013.9 |
| 20260903113603 | 22 | 10 | 3.2 | 6.4 | 0.00 | 0.05 | 0.00 | 76 | 1013.9 |
| 20260903112703 | 21 | 353 | 6.4 | 12.9 | 0.00 | 0.05 | 0.00 | 80 | 1013.8 |
| 20260903112016 | 21 | 326 | 9.7 | 12.9 | 0.00 | 0.05 | 0.00 | 78 | 1013.9 |
| 20260903110903 | 22 | 315 | 9.7 | 12.9 | 0.00 | 0.05 | 0.00 | 76 | 1013.8 |
| 20260903110003 | 22 | 325 | 9.7 | 12.9 | 0.00 | 0.05 | 0.00 | 74 | 1013.8 |
| 20260903105403 | 22 | 314 | 12.9 | 20.9 | 0.00 | 0.05 | 0.00 | 70 | 1013.8 |
| 20260903104718 | 22 | 243 | 12.9 | 20.9 | 0.00 | 0.05 | 0.00 | 70 | 1013.9 |
| 20260903103603 | 23 | 292 | 8.0 | 12.9 | 0.00 | 0.05 | 0.00 | 68 | 1014.0 |
| 20260903102703 | 23 | 246 | 8.0 | 12.9 | 0.00 | 0.05 | 0.00 | 69 | 1013.7 |
| 20260903101803 | 23 | 268 | 8.0 | 12.9 | 0.00 | 0.05 | 0.00 | 71 | 1013.7 |
| 20260903100903 | 22 | 32 | 8.0 | 14.5 | 0.00 | 0.05 | 0.00 | 73 | 1013.8 |
| 20260903100003 | 22 | 341 | 9.7 | 14.5 | 0.00 | 0.05 | 0.00 | 75 | 1013.7 |
| 20260903095403 | 22 | 323 | 6.4 | 11.3 | 0.00 | 0.05 | 0.00 | 76 | 1013.9 |
| 20260903094718 | 22 | 276 | 6.4 | 9.7 | 0.00 | 0.05 | 0.00 | 76 | 1013.8 |
| 20260903093603 | 21 | 203 | 8.0 | 14.5 | 0.00 | 0.05 | 0.00 | 77 | 1013.8 |
| 20260903092703 | 21 | 185 | 6.4 | 9.7 | 0.00 | 0.05 | 0.00 | 78 | 1013.9 |
| 20260903092018 | 21 | 335 | 6.4 | 11.3 | 0.00 | 0.05 | 0.00 | 79 | 1013.9 |
| 20260903090903 | 20 | 179 | 9.7 | 14.5 | 0.00 | 0.05 | 0.00 | 80 | 1014.0 |
| 20260903090003 | 20 | 211 | 6.4 | 8.0 | 0.00 | 0.05 | 0.00 | 79 | 1014.0 |
| 20260903085403 | 20 | 244 | 6.4 | 8.0 | 0.00 | 0.05 | 0.00 | 79 | 1014.0 |
| 20260903084503 | 20 | 188 | 4.8 | 8.0 | 0.00 | 0.05 | 0.00 | 80 | 1014.1 |
| 20260903083603 | 20 | 196 | 6.4 | 12.9 | 0.00 | 0.05 | 0.00 | 80 | 1013.8 |
| 20260903082703 | 20 | 217 | 8.0 | 12.9 | 0.00 | 0.05 | 0.00 | 80 | 1014.0 |
| 20260903081803 | 20 | 216 | 6.4 | 12.9 | 0.00 | 0.05 | 0.00 | 80 | 1013.9 |
| 20260903080903 | 20 | 278 | 9.7 | 17.7 | 0.00 | 0.05 | 0.00 | 78 | 1013.8 |